Вернуться в каталог

STARLINK-34375

АктивенСвязьVLEO
NORAD 64477·PAYLOAD·🇺🇸 United States

Запущен Jun 23, 2025 с Cape Canaveral Space Force Station

Loading…

Ближайшие Пролёты (ближайшие 24 часа)

TLE

СвежийSource: CelesTrak SupGP

Эпоха: Sep 15, 2026, 02:55 UTC

1 64477C 25133F   26258.12201389  .00042611  00000+0  12587-2 0  2587
2 64477  53.1586 311.0952 0001221  80.2155 265.7659 15.34374654    19

Отслеживайте STARLINK-34375 в реальном времени с AllMySat

Download on the App Store